"TOA5","AWS1","CR1000","7964","CR1000.Std.14","CPU:AWS1_114.CR1","64363","TBL110"
"TIMESTAMP","RECORD","Wind_spd_WVc(1)","Wind_spd_WVc(2)","Air_Temp_Avg","Humidity_Avg","SW_upper_Wm2_Avg","Rain_Tot","Press_Avg","Issui_Tot","Depth_cm","SR50A_Raw","Quality","Ground_Temp_Avg(1)","Ground_Temp_Avg(2)","SW_lower_Wm2_Avg","Albedo_Avg","SWC_per(1)","SWC_per(2)","Period(1)","Period(2)"
"TS","RN","","","","","","","","","","","","","","","","","","",""
"","","WVc","WVc","Avg","Avg","Avg","Tot","Avg","Tot","Smp","Smp","Smp","Avg","Avg","Avg","Avg","Smp","Smp","Smp","Smp"
"2017-02-24 00:00:00",276541,1.16,288.7,-5.02,92.4,0,0,856.4955,0,103.6,2.164,186,0.937,1.549,0.06067414,0,53.45,61.7,34.14,36.06
"2017-02-24 00:10:00",276542,1.59,292.9,-5.164,91.1,0,0,856.485,0,103.8,2.162,194,0.942,1.561,0.02275314,0,53.45,61.7,34.14,36.06
"2017-02-24 00:20:00",276543,0.531,233.2,-5.13,91.1,0,0,856.4828,0,103.8,2.162,194,0.945,1.54,0.1858217,0,53.45,61.7,34.14,36.06
"2017-02-24 00:30:00",276544,0.992,295.3,-5.149,90.1,0,0,856.4955,0,103.8,2.163,193,0.953,1.535,0.1820375,0,53.39,61.7,34.13,36.06
"2017-02-24 00:40:00",276545,1.004,268.6,-5.219,90.3,0,0,856.5905,0,103.7,2.164,188,0.949,1.537,0.1289493,0,53.39,61.64,34.13,36.05
"2017-02-24 00:50:00",276546,1.15,266.2,-5.334,90.8,0,0,856.7392,0,103.8,2.164,191,0.953,1.542,0.06826907,0,53.45,61.7,34.14,36.06
"2017-02-24 01:00:00",276547,1.143,299.2,-5.47,89.9,0,0,856.597,0,103.7,2.165,191,0.959,1.551,0.04930754,0,53.39,61.64,34.13,36.05
"2017-02-24 01:10:00",276548,0.617,282.9,-5.532,90.6,0,0,856.6146,0,103.7,2.165,191,0.95,1.571,0.1517257,0,53.39,61.64,34.13,36.05
"2017-02-24 01:20:00",276549,1.122,258.3,-5.544,91.7,0,0,856.7493,0,103.7,2.165,204,0.956,1.589,0.193458,0,53.39,61.64,34.13,36.05
"2017-02-24 01:30:00",276550,1.029,255.3,-5.601,90.7,0,0,856.7668,0,103.5,2.168,175,0.948,1.601,0.2010494,0,53.39,61.64,34.13,36.05
"2017-02-24 01:40:00",276551,1.201,214.3,-5.719,91.8,0,0,856.5774,0,103.5,2.168,189,0.947,1.618,0.1517366,0,53.39,61.64,34.13,36.05
"2017-02-24 01:50:00",276552,1.038,216.6,-5.77,92.3,0,0,856.5647,0,103.5,2.168,194,0.942,1.629,0.1593238,0,53.39,61.64,34.13,36.05
"2017-02-24 02:00:00",276553,1.025,207.3,-5.906,90.4,0,0,856.6232,0,103.5,2.169,198,0.946,1.633,0.106216,0,53.39,61.64,34.13,36.05
"2017-02-24 02:10:00",276554,1.158,238.7,-6.027,90.2,0,0,856.8155,0,103.6,2.168,192,0.945,1.632,0.1024225,0,53.39,61.64,34.13,36.05
"2017-02-24 02:20:00",276555,1.666,177.1,-6.148,90.9,0,0,856.8704,0,103.6,2.169,193,0.95,1.632,0.0986291,0,53.39,61.64,34.13,36.05
"2017-02-24 02:30:00",276556,1.201,189.7,-6.323,91.4,0,0,856.9252,0,103.5,2.17,189,0.927,1.635,0.0569014,0,53.33,61.64,34.11,36.05
"2017-02-24 02:40:00",276557,1.066,186.5,-6.369,91.2,0,0,857.0518,0,103.7,2.169,192,0.907,1.635,0.1138028,0,53.33,61.64,34.11,36.05
"2017-02-24 02:50:00",276558,0.646,223.4,-6.417,90.3,0,0,857.0539,0,103.6,2.17,192,0.9,1.654,0.09483567,0,53.33,61.64,34.11,36.05
"2017-02-24 03:00:00",276559,0.87,245.1,-6.553,90.8,0,0,857.0792,0,103.5,2.171,193,0.898,1.664,0.1934648,0,53.33,61.64,34.11,36.05
"2017-02-24 03:10:00",276560,1.137,218.9,-6.708,91.4,0,0,857.1277,0,103.5,2.172,193,0.898,1.653,0.04552113,0,53.33,61.64,34.11,36.05
"2017-02-24 03:20:00",276561,1.205,219.3,-6.804,91.3,0,0,857.4228,0,103.3,2.174,179,0.905,1.634,0.08724882,0,53.39,61.58,34.13,36.04
"2017-02-24 03:30:00",276562,1.238,234.1,-6.922,91.2,0,0,857.5472,0,103.5,2.173,194,0.908,1.616,0.07586853,0,53.39,61.64,34.13,36.05
"2017-02-24 03:40:00",276563,0.839,220.5,-7.04,90.8,0,0,857.6864,0,103.4,2.174,193,0.915,1.611,0.1138028,0,53.39,61.64,34.13,36.05
"2017-02-24 03:50:00",276564,0.742,217.7,-7.05,90.7,0,0,857.7855,0,103.4,2.174,193,0.917,1.613,0.1858779,0,53.33,61.58,34.11,36.04
"2017-02-24 04:00:00",276565,0.865,260.5,-7.111,91.2,0,0,857.9478,0,103.3,2.176,176,0.926,1.604,0.1441502,0,53.33,61.58,34.11,36.04
"2017-02-24 04:10:00",276566,0.828,298.6,-7.196,89.8,0,0,858.068,0,103.3,2.176,176,0.931,1.597,0.0834554,0,53.33,61.58,34.11,36.04
"2017-02-24 04:20:00",276567,0.765,272.5,-7.248,90.8,0,0,858.0848,0,103.5,2.174,195,0.936,1.593,0.2086385,0,53.33,61.58,34.11,36.04
"2017-02-24 04:30:00",276568,1.572,289.9,-7.344,90.9,0,0,858.2852,0,103.4,2.176,190,0.938,1.589,0.0986291,0,53.33,61.58,34.11,36.04
"2017-02-24 04:40:00",276569,1.817,283.7,-7.566,91.3,0,0,858.5087,0,104.1,2.17,193,0.941,1.589,0.02276056,0,53.33,61.58,34.11,36.04
"2017-02-24 04:50:00",276570,1.73,286.3,-7.82,91.4,0,0,858.6457,0,104,2.172,186,0.955,1.587,0.0417277,0,53.33,61.58,34.11,36.04
"2017-02-24 05:00:00",276571,1.499,301.5,-8.04,89.8,0,0,858.8038,0,104.1,2.171,189,0.978,1.579,0,0,53.28,61.58,34.1,36.04
"2017-02-24 05:10:00",276572,0.697,309.9,-8.13,89.4,0,0,858.7991,0.5,103.1,2.182,188,0.988,1.558,0.01138043,0,53.33,61.58,34.11,36.04
"2017-02-24 05:20:00",276573,1.168,288.5,-8.25,87.2,0,0,858.8495,0,104.2,2.171,185,1.003,1.555,0.01517514,0,53.33,61.58,34.11,36.04
"2017-02-24 05:30:00",276574,1.066,302.9,-8.28,87.6,0,0,858.8721,0,104,2.173,189,1.027,1.59,0.06070592,0,53.33,61.58,34.11,36.04
"2017-02-24 05:40:00",276575,0.797,307.3,-8.31,87.4,0,0,859.0153,0,103.8,2.176,176,1.052,1.631,0,0,53.33,61.58,34.11,36.04
"2017-02-24 05:50:00",276576,1.119,271.3,-8.38,87.1,0,0,859.1315,0,103.6,2.177,193,1.06,1.624,0.0834811,0,53.33,61.58,34.11,36.04
"2017-02-24 06:00:00",276577,0.645,210.5,-8.35,88.6,0,0,859.2253,0,103.2,2.182,187,1.064,1.634,0.1252236,0,53.28,61.58,34.1,36.04
"2017-02-24 06:10:00",276578,0.625,202.8,-8.39,88,0,0,859.3451,0,103.3,2.181,189,1.067,1.634,0.1935298,0,53.33,61.52,34.11,36.02
"2017-02-24 06:20:00",276579,0.812,180.4,-8.42,86.7,0,0,859.4056,0,103.2,2.182,188,1.065,1.635,0.2466566,0,53.33,61.52,34.11,36.02
"2017-02-24 06:30:00",276580,0.704,161.1,-8.42,85.2,0.1180697,0,859.4176,0,103.1,2.183,174,1.055,1.641,0.9942172,0.994,53.28,61.58,34.1,36.04
"2017-02-24 06:40:00",276581,0.389,176.6,-8.36,85.4,1.464065,0,859.4474,0,103.2,2.182,194,1.04,1.636,2.409649,1.869,53.33,61.52,34.11,36.02
"2017-02-24 06:50:00",276582,0.253,201.3,-8.32,85.6,6.175048,0,859.6584,0,103.5,2.178,188,1.032,1.64,5.809721,0.997,53.28,61.52,34.1,36.02
"2017-02-24 07:00:00",276583,0.472,285.5,-8.36,85.5,14.58949,0,859.709,0,103.9,2.175,193,0.998,1.639,12.27973,0.843,53.33,61.52,34.11,36.02
"2017-02-24 07:10:00",276584,0.699,271.1,-8.41,88.3,21.19352,0,860.0296,0,103.4,2.18,196,0.995,1.636,17.30014,0.817,53.33,61.52,34.11,36.02
"2017-02-24 07:20:00",276585,1.113,234.1,-8.54,88.8,25.5621,0,860.1794,0,103.9,2.176,193,1,1.637,23.70943,0.925,53.28,61.52,34.1,36.02
"2017-02-24 07:30:00",276586,0.736,236.6,-8.49,88,68.70872,0,860.1815,0,103.5,2.178,193,1.007,1.636,62.30936,0.911,53.33,61.52,34.11,36.02
"2017-02-24 07:40:00",276587,0.679,245.9,-8.03,86.6,82.82199,0,860.3333,0,103.4,2.179,194,1.027,1.635,72.46783,0.876,53.28,61.52,34.1,36.02
"2017-02-24 07:50:00",276588,0.926,229.7,-8.17,85.9,66.3552,0,860.5969,0,103.3,2.179,195,1.057,1.634,58.60191,0.886,53.28,61.52,34.1,36.02
"2017-02-24 08:00:00",276589,1.085,215.1,-8.02,85.7,83.40841,0,860.6876,0,103.6,2.176,197,1.061,1.636,79.85616,0.955,53.28,61.52,34.1,36.02
"2017-02-24 08:10:00",276590,1.292,287.2,-8.04,84.2,85.08106,0,860.6876,0,103.7,2.175,204,1.068,1.637,87.93892,1.03,53.28,61.52,34.1,36.02
"2017-02-24 08:20:00",276591,1.39,266.3,-7.943,82.2,77.00903,0,860.6349,0,104,2.172,194,1.071,1.654,91.08854,1.182,53.28,61.52,34.1,36.02
"2017-02-24 08:30:00",276592,0.675,247.9,-7.712,83.2,60.23132,0,860.476,0,103.9,2.17,181,1.068,1.652,93.04282,1.567,53.28,61.52,34.1,36.02
"2017-02-24 08:40:00",276593,0.565,128.8,-7.193,80.9,68.35451,0,860.6175,0,104.1,2.167,195,1.039,1.663,101.6606,1.503,53.22,61.52,34.08,36.02
"2017-02-24 08:50:00",276594,1.177,247.8,-7.149,76.5,95.86364,0,860.6815,0,103.8,2.17,196,1.009,1.675,106.3649,1.116,53.22,61.46,34.08,36.01
"2017-02-24 09:00:00",276595,0.871,257.1,-7.1,75.9,74.17033,0,860.6469,0,104,2.169,197,0.969,1.66,82.8484,1.101,53.28,61.52,34.1,36.02
"2017-02-24 09:10:00",276596,0.917,233.1,-7.002,75.2,76.38503,0,860.6112,0,103.9,2.168,193,0.94,1.633,83.70431,1.151,53.22,61.52,34.08,36.02
"2017-02-24 09:20:00",276597,0.652,254.2,-6.648,72.74,97.86682,0,860.609,0,104.1,2.165,186,0.901,1.636,102.2797,1.054,53.28,61.46,34.1,36.01
"2017-02-24 09:30:00",276598,0.507,137.5,-6.23,72.35,100.0612,0,860.6008,0,104,2.164,185,0.918,1.62,102.9195,1.03,53.22,61.52,34.08,36.02
"2017-02-24 09:40:00",276599,0.802,303.7,-6.311,68.62,114.5099,0,860.5988,0,103.8,2.168,185,0.947,1.593,112.1695,0.992,53.22,61.52,34.08,36.02
"2017-02-24 09:50:00",276600,1.145,286.5,-6.513,68.86,121.6299,0,860.6152,0,104,2.166,176,0.946,1.592,119.5542,0.982,53.22,61.46,34.08,36.01
"2017-02-24 10:00:00",276601,1.076,303.5,-6.168,69.24,194.021,0,860.7479,0,104,2.165,176,0.987,1.59,168.4664,0.871,53.22,61.46,34.08,36.01
"2017-02-24 10:10:00",276602,0.836,302.8,-6.059,70.33,206.052,0,860.6888,0,103.8,2.166,190,1.002,1.59,175.192,0.855,53.28,61.46,34.1,36.01
"2017-02-24 10:20:00",276603,0.911,265.8,-5.584,70.75,266.6522,0,860.6783,0,103.8,2.163,198,1.002,1.573,213.0997,0.803,53.22,61.52,34.08,36.02
"2017-02-24 10:30:00",276604,1.023,294.8,-5.837,69.74,190.9678,0,860.7963,0,103.9,2.166,204,0.984,1.547,153.6225,0.802,53.22,61.46,34.08,36.01
"2017-02-24 10:40:00",276605,0.635,229.3,-5.989,71.22,123.8483,0,860.8479,0,103.9,2.163,218,0.985,1.585,144.0819,1.245,53.22,61.52,34.08,36.02
"2017-02-24 10:50:00",276606,0.822,147.9,-5.706,66.53,103.5123,0,860.8274,0,103.8,2.164,198,0.965,1.623,136.8548,1.335,53.22,61.52,34.08,36.02
"2017-02-24 11:00:00",276607,1.099,300,-5.632,64.53,194.17,0,860.7239,0,103.9,2.163,195,0.922,1.607,173.3273,0.921,53.22,61.46,34.08,36.01
"2017-02-24 11:10:00",276608,0.706,283,-5.448,65.01,207.861,0,860.5865,0.5,104.3,2.157,192,0.907,1.588,183.9678,0.898,53.22,61.46,34.08,36.01
"2017-02-24 11:20:00",276609,0.825,238.5,-4.983,62.14,242.5375,0,860.5112,0,104,2.16,185,0.873,1.578,205.4737,0.865,53.16,61.46,34.07,36.01
"2017-02-24 11:30:00",276610,1.025,331,-5.482,63.92,125.9256,0,860.5092,0,104.2,2.16,184,0.863,1.575,176.1001,1.458,53.22,61.46,34.08,36.01
"2017-02-24 11:40:00",276611,0.96,260.9,-5.193,62.79,122.3519,0,860.5087,0,104,2.161,187,0.87,1.576,232.2474,1.93,53.16,61.4,34.07,36
"2017-02-24 11:50:00",276612,0.732,248,-4.603,60.37,265.7043,0,860.5087,0,103.8,2.159,186,0.898,1.567,308.1382,1.379,53.22,61.46,34.08,36.01
"2017-02-24 12:00:00",276613,0.956,220.8,-4.3,60.42,527.6124,0,860.5087,0,103.9,2.157,187,0.939,1.584,323.9697,0.617,53.28,61.46,34.1,36.01
"2017-02-24 12:10:00",276614,1.005,335.1,-3.909,56.7,823.4583,0,860.5087,0,103.6,2.16,187,0.929,1.566,506.3561,0.613,53.22,61.46,34.08,36.01
"2017-02-24 12:20:00",276615,1.079,326.3,-4.031,54.41,863.7035,0,860.485,0,103.4,2.163,188,0.887,1.596,560.6715,0.649,53.22,61.46,34.08,36.01
"2017-02-24 12:30:00",276616,1.331,287.9,-4.011,54.94,886.0101,0,860.3256,0,103.6,2.16,194,0.973,1.581,587.6381,0.663,53.22,61.46,34.08,36.01
"2017-02-24 12:40:00",276617,0.877,310.2,-3.591,54.8,853.9598,0,860.129,0,103.6,2.158,217,0.959,1.568,573.1024,0.671,53.22,61.46,34.08,36.01
"2017-02-24 12:50:00",276618,1.09,5.275,-3.724,53.71,852.9207,0,860.0219,0,103.8,2.155,210,0.88,1.526,572.186,0.671,53.16,61.46,34.07,36.01
"2017-02-24 13:00:00",276619,1.13,352.6,-3.334,53.07,833.8458,0,859.833,0,103.8,2.156,201,0.88,1.537,560.3469,0.672,53.22,61.46,34.08,36.01
"2017-02-24 13:10:00",276620,0.832,258.7,-3.412,54.48,819.8272,0,859.71,0,103.6,2.157,191,0.841,1.549,552.6223,0.674,53.22,61.46,34.08,36.01
"2017-02-24 13:20:00",276621,1.263,22.49,-3.215,53.5,808.7311,0,859.5095,0,103.3,2.16,183,0.806,1.544,542.4968,0.671,53.16,61.46,34.07,36.01
"2017-02-24 13:30:00",276622,0.657,265.4,-3.535,54.96,782.8292,0,859.4796,0,103.4,2.16,189,0.807,1.48,521.0269,0.666,53.16,61.4,34.07,36
"2017-02-24 13:40:00",276623,0.683,285.6,-3.782,55.3,769.2652,0,859.559,0,103.4,2.161,173,0.782,1.491,501.0463,0.651,53.16,61.4,34.07,36
"2017-02-24 13:50:00",276624,0.879,292.1,-3.809,54.56,746.8979,0,859.7015,0,103.4,2.161,171,0.776,1.47,458.7541,0.614,53.16,61.4,34.07,36
"2017-02-24 14:00:00",276625,0.901,269,-4.149,56.09,726.7498,0,859.6846,0,103.4,2.164,170,0.746,1.471,372.0187,0.512,53.16,61.34,34.07,35.98
"2017-02-24 14:10:00",276626,0.74,258.4,-4.509,58.42,703.3909,0,859.5687,0,103.6,2.163,171,0.743,1.459,219.3112,0.311,53.16,61.4,34.07,36
"2017-02-24 14:20:00",276627,0.891,276.5,-5.127,62.16,270.2196,0,859.5624,0,103.8,2.163,170,0.744,1.443,91.90127,0.506,53.16,61.4,34.07,36
"2017-02-24 14:30:00",276628,0.914,270.8,-5.373,65.05,76.83627,0,859.7351,0,103.8,2.163,170,0.753,1.425,61.01565,0.795,53.16,61.4,34.07,36
"2017-02-24 14:40:00",276629,0.83,269.8,-5.417,63.71,76.70795,0,859.7414,0,103.6,2.165,178,0.705,1.442,53.19029,0.694,53.11,61.4,34.06,36
"2017-02-24 14:50:00",276630,0.899,277.1,-5.303,60.04,64.11481,0,859.8629,0,103.8,2.162,169,0.686,1.42,44.50218,0.695,53.16,61.4,34.07,36
"2017-02-24 15:00:00",276631,0.994,292.8,-5.11,59.69,52.90929,0,860.0661,0,103.7,2.164,178,0.771,1.367,37.51833,0.709,53.11,61.4,34.06,36
"2017-02-24 15:10:00",276632,0.891,280,-5.243,59.42,47.62846,0,860.0953,0,103.7,2.164,173,0.833,1.413,33.98271,0.713,53.16,61.4,34.07,36
"2017-02-24 15:20:00",276633,0.845,269.9,-5.252,58.4,49.35828,0,860.1258,0,103.8,2.163,187,0.76,1.459,34.14122,0.692,53.11,61.4,34.06,36
"2017-02-24 15:30:00",276634,1.067,301.6,-5.353,58.62,44.51083,0,860.1377,0,103.9,2.163,187,0.79,1.462,31.04589,0.698,53.16,61.4,34.07,36
"2017-02-24 15:40:00",276635,0.809,287.8,-5.287,59.67,39.87226,0,860.3371,0,103.4,2.167,182,0.835,1.503,28.2022,0.707,53.16,61.4,34.07,36
"2017-02-24 15:50:00",276636,0.648,247.7,-5.557,63.7,43.52623,0,860.3633,0,103.5,2.167,187,0.837,1.464,29.78405,0.684,53.11,61.34,34.06,35.98
"2017-02-24 16:00:00",276637,0.8,267.7,-5.63,63.17,45.06542,0,860.4217,0,103.5,2.168,187,0.811,1.462,30.30849,0.674,53.11,61.34,34.06,35.98
"2017-02-24 16:10:00",276638,0.741,265.4,-5.634,64.15,50.27745,0,860.5977,0,103.6,2.167,186,0.885,1.498,33.22795,0.662,53.11,61.34,34.06,35.98
"2017-02-24 16:20:00",276639,0.769,266.6,-5.75,62.68,31.07605,0,860.8544,0,103.5,2.168,187,0.919,1.509,21.79178,0.701,53.11,61.34,34.06,35.98
"2017-02-24 16:30:00",276640,0.944,293.6,-5.895,62.1,24.45852,0,861.0366,0,103.4,2.17,187,0.931,1.496,17.82636,0.729,53.11,61.34,34.06,35.98
"2017-02-24 16:40:00",276641,0.846,272.9,-6.057,61.75,21.00583,0,861.1401,0,103.4,2.171,187,0.897,1.532,15.66517,0.746,53.16,61.34,34.07,35.98
"2017-02-24 16:50:00",276642,0.627,260.2,-6.482,64.91,18.11915,0,861.2672,0,103.5,2.171,193,0.853,1.542,13.80712,0.762,53.11,61.34,34.06,35.98
"2017-02-24 17:00:00",276643,0.623,268.8,-6.714,65.58,15.27171,0,861.3895,0,103.5,2.172,188,0.859,1.546,11.98313,0.785,53.11,61.34,34.06,35.98
"2017-02-24 17:10:00",276644,0.53,288.6,-6.765,66.23,12.82935,0,861.3304,0,103.5,2.172,192,0.857,1.552,10.35631,0.808,53.05,61.34,34.04,35.98
"2017-02-24 17:20:00",276645,0.253,271.1,-6.753,67.91,9.250875,0,861.2748,0,103.6,2.171,228,0.83,1.546,7.994284,0.869,53.05,61.34,34.04,35.98
"2017-02-24 17:30:00",276646,0.114,253.6,-6.802,69.59,4.637847,0,861.3101,0,103.3,2.175,187,0.877,1.561,5.139326,1.149,53.05,61.34,34.04,35.98
"2017-02-24 17:40:00",276647,0.196,200.3,-6.978,70.73,0.7985954,0,861.2921,0,103.3,2.175,192,0.918,1.569,2.564156,2.656,53.05,61.34,34.04,35.98
"2017-02-24 17:50:00",276648,0.084,304.2,-7.137,69.88,0,0,861.3414,0,103.2,2.177,186,0.932,1.583,0.6372718,0,53.11,61.34,34.06,35.98
"2017-02-24 18:00:00",276649,0.091,215.5,-7.523,72.18,0,0,861.4976,0,103.3,2.178,191,0.951,1.602,0,0,53.05,61.34,34.04,35.98
"2017-02-24 18:10:00",276650,0.04,245.1,-7.729,73.53,0,0,861.6226,0,103.3,2.179,187,0.981,1.568,0,0,53.11,61.34,34.06,35.98
"2017-02-24 18:20:00",276651,0.118,243.6,-8,74.82,0,0,861.6185,0,103.2,2.18,188,0.981,1.547,0,0,53.11,61.28,34.06,35.97
"2017-02-24 18:30:00",276652,0.002,227.4,-8.08,73.71,0,0,861.6459,0,103.2,2.181,187,0.972,1.55,0,0,53.05,61.28,34.04,35.97
"2017-02-24 18:40:00",276653,0,0,-8.3,74.75,0,0,861.6396,0,103.3,2.181,205,0.917,1.55,0,0,53.05,61.28,34.04,35.97
"2017-02-24 18:50:00",276654,0.012,232.6,-8.49,76.58,0,0,861.62,0,103.3,2.182,194,0.891,1.575,0.09483567,0,53.05,61.28,34.04,35.97
"2017-02-24 19:00:00",276655,0.002,232.6,-8.6,77.56,0,0,861.7375,0,103.3,2.181,209,0.919,1.61,0.08725906,0,53.05,61.28,34.04,35.97
"2017-02-24 19:10:00",276656,0.048,232.6,-8.53,77.17,0,0,861.8132,0,103.2,2.183,189,0.926,1.641,0.1935041,0,53.05,61.28,34.04,35.97
"2017-02-24 19:20:00",276657,0.118,245.6,-8.63,77.96,0,0,861.9781,0,103.7,2.179,210,0.947,1.659,0.1631651,0,53.05,61.28,34.04,35.97
"2017-02-24 19:30:00",276658,0.553,304.8,-8.51,77.4,0,0,862.0986,0,103.2,2.181,195,0.972,1.644,0.265627,0,53.05,61.28,34.04,35.97
"2017-02-24 19:40:00",276659,0.176,24.01,-8.6,77.23,0,0,862.2058,0,103.2,2.184,211,0.979,1.634,0.07209917,0,53.05,61.28,34.04,35.97
"2017-02-24 19:50:00",276660,0.009,38.01,-8.79,78.69,0,0,862.3391,0,103.2,2.183,213,0.984,1.615,0,0,53.05,61.28,34.04,35.97
"2017-02-24 20:00:00",276661,0.002,311.9,-8.75,77.41,0,0,862.4593,0,103,2.186,204,0.984,1.556,0.01897361,0,53,61.28,34.03,35.97
"2017-02-24 20:10:00",276662,0.001,126.8,-9.1,79.6,0,0,862.4572,0,103.3,2.183,216,0.985,1.564,0,0,53.05,61.28,34.04,35.97
"2017-02-24 20:20:00",276663,0,0,-9.14,79.04,0,0,862.3961,0,103.1,2.187,201,0.985,1.588,0,0,53,61.28,34.03,35.97
"2017-02-24 20:30:00",276664,0.114,142.1,-9.72,82.7,0,0,862.4593,0,103.2,2.189,209,0.985,1.59,0,0,53.05,61.28,34.04,35.97
"2017-02-24 20:40:00",276665,0.426,158.2,-10.07,85,0,0,862.3286,0,103.4,2.185,206,0.985,1.59,0.05692085,0,53,61.28,34.03,35.97
"2017-02-24 20:50:00",276666,0.542,103.5,-9.13,79.22,0,0,862.3939,0,103.2,2.183,195,0.985,1.59,0.3794723,0,53.05,61.22,34.04,35.96
"2017-02-24 21:00:00",276667,0.925,28.21,-8.35,73.47,0,0,862.2843,0,103.1,2.181,204,0.985,1.59,0.5995663,0,53,61.22,34.03,35.96
"2017-02-24 21:10:00",276668,1.092,32.31,-8.02,75.1,0,0,862.2062,0,103.1,2.182,201,0.989,1.595,0.2049165,0,53,61.22,34.03,35.96
"2017-02-24 21:20:00",276669,0.899,4.705,-7.96,74.61,0,0,862.2231,0,103.1,2.181,179,1.007,1.613,0.02277056,0,53.05,61.22,34.04,35.96
"2017-02-24 21:30:00",276670,0.76,11.49,-7.751,69.77,0,0,862.2126,0,103.3,2.177,214,1.022,1.628,0,0,53.05,61.28,34.04,35.97
"2017-02-24 21:40:00",276671,0.297,359.2,-7.707,67.52,0,0,862.2084,0,103.1,2.182,191,1.034,1.64,0,0,53,61.22,34.03,35.96
"2017-02-24 21:50:00",276672,0.234,339.2,-8.12,70.46,0,0,862.4213,0,102.9,2.184,193,1.046,1.651,0,0,53.05,61.22,34.04,35.96
"2017-02-24 22:00:00",276673,0,0,-8.73,73.62,0,0,862.4593,0,102.9,2.19,184,1.047,1.653,0,0,53.05,61.22,34.04,35.96
"2017-02-24 22:10:00",276674,0.135,189.2,-9.81,78.35,0,0,862.415,0,103,2.189,192,1.048,1.654,0,0,53,61.22,34.03,35.96
"2017-02-24 22:20:00",276675,0.354,169.6,-8.86,70.49,0,0,862.2379,0,103.2,2.181,192,1.05,1.66,0.447903,0,53.05,61.22,34.04,35.96
"2017-02-24 22:30:00",276676,0.557,116.7,-8.04,63.63,0,0,862.2126,0,103.1,2.179,182,1.053,1.669,0.6870564,0,53,61.22,34.03,35.96
"2017-02-24 22:40:00",276677,0.466,353.8,-7.15,55.34,0,0,862.2089,0,103,2.179,177,1.053,1.676,0.565599,0,53,61.16,34.03,35.94
"2017-02-24 22:50:00",276678,0.57,306.9,-7.178,53.56,0,0,862.1992,0,103.1,2.177,179,1.041,1.678,0.1480441,0,53,61.22,34.03,35.96
"2017-02-24 23:00:00",276679,0.341,90.7,-6.903,50.89,0,0,862.2539,0,102.7,2.182,178,1.054,1.679,0.07212429,0,53,61.16,34.03,35.94
"2017-02-24 23:10:00",276680,0.373,101,-7.288,53.34,0,0,862.4073,0,102.7,2.182,178,1.04,1.679,0.01138806,0,53,61.16,34.03,35.94
"2017-02-24 23:20:00",276681,0.226,118.3,-7.255,51.98,0,0,862.4646,0,102.7,2.182,177,1.033,1.676,0.0189801,0,53,61.16,34.03,35.94
"2017-02-24 23:30:00",276682,0.403,143.9,-6.958,51.06,0,0,862.4539,0,103,2.178,179,1.018,1.679,0.09110449,0,53,61.16,34.03,35.94
"2017-02-24 23:40:00",276683,0.806,191,-6.615,52.2,0,0,862.3444,0,103.1,2.176,178,1.028,1.678,0.1784129,0,53,61.16,34.03,35.94
"2017-02-24 23:50:00",276684,0.494,165.4,-6.615,54.54,0,0,862.2483,0,102.8,2.179,187,1.049,1.679,0.00759204,0,53,61.16,34.03,35.94
